Previsão horária em Ploiesti

Hoje, 3 Março, Quarta-feira

Tempo Temperatura Precipitação Vento Pressão Humidade
00:00 +6°C° 0 mm 2 m/s 757 mmHg 65%
01:00 +5°C° 0 mm 2 m/s 757 mmHg 66%
02:00 +5°C° 0 mm 2 m/s 758 mmHg 67%
03:00 +5°C° 0 mm 2 m/s 758 mmHg 69%
04:00 +6°C° 0 mm 1 m/s 757 mmHg 71%
05:00 +5°C° 0 mm 1 m/s 757 mmHg 73%
06:00 +6°C° 0 mm 1 m/s 758 mmHg 73%
07:00 +6°C° 0 mm 1 m/s 758 mmHg 72%
08:00 +6°C° 0 mm 1 m/s 758 mmHg 72%
09:00 +8°C° 0 mm 1 m/s 758 mmHg 66%
10:00 +8°C° 0 mm 2 m/s 758 mmHg 60%
11:00 +10°C° 0 mm 2 m/s 758 mmHg 54%
12:00 +10°C° 0 mm 2 m/s 758 mmHg 53%
13:00 +12°C° 0 mm 2 m/s 758 mmHg 52%
14:00 +12°C° 0 mm 3 m/s 758 mmHg 51%
15:00 +11°C° 0 mm 3 m/s 757 mmHg 52%
16:00 +11°C° 0 mm 3 m/s 757 mmHg 54%
17:00 +11°C° 0 mm 3 m/s 756 mmHg 56%
18:00 +10°C° 0 mm 2 m/s 756 mmHg 60%
19:00 +9°C° 0 mm 2 m/s 757 mmHg 65%
20:00 +9°C° 0 mm 1 m/s 757 mmHg 70%
21:00 +8°C° 0 mm 1 m/s 756 mmHg 71%
22:00 +8°C° 0 mm 1 m/s 756 mmHg 72%
23:00 +7°C° 0 mm 1 m/s 756 mmHg 73%

Amanhã, 4 Março, Quinta-feira

Tempo Temperatura Precipitação Vento Pressão Humidade
00:00 +6°C° 0 mm 2 m/s 755 mmHg 73%
01:00 +6°C° 0 mm 2 m/s 755 mmHg 73%
02:00 +6°C° 0 mm 2 m/s 754 mmHg 73%
03:00 +5°C° 0 mm 2 m/s 754 mmHg 72%
04:00 +5°C° 0 mm 2 m/s 753 mmHg 71%
05:00 +5°C° 0 mm 2 m/s 752 mmHg 70%
06:00 +5°C° 0 mm 2 m/s 752 mmHg 69%
07:00 +5°C° 0 mm 2 m/s 752 mmHg 67%
08:00 +6°C° 0 mm 2 m/s 752 mmHg 65%
09:00 +8°C° 0 mm 3 m/s 751 mmHg 59%
10:00 +10°C° 0 mm 3 m/s 750 mmHg 53%
11:00 +12°C° 0 mm 3 m/s 750 mmHg 47%
12:00 +13°C° 0 mm 4 m/s 749 mmHg 45%
13:00 +14°C° 0 mm 4 m/s 749 mmHg 43%
14:00 +15°C° 0 mm 4 m/s 748 mmHg 42%
15:00 +15°C° 0 mm 4 m/s 748 mmHg 43%
16:00 +16°C° 0 mm 3 m/s 747 mmHg 44%
17:00 +16°C° 0 mm 3 m/s 746 mmHg 46%
18:00 +13°C° 0 mm 3 m/s 747 mmHg 50%
19:00 +13°C° 0 mm 2 m/s 747 mmHg 54%
20:00 +10°C° 0 mm 2 m/s 747 mmHg 58%
21:00 +10°C° 0 mm 2 m/s 747 mmHg 58%
22:00 +9°C° 0 mm 2 m/s 746 mmHg 57%
23:00 +9°C° 0 mm 2 m/s 746 mmHg 57%

Depois de amanhã, 5 Março, Sexta-feira

Tempo Temperatura Precipitação Vento Pressão Humidade
00:00 +8°C° 0 mm 2 m/s 746 mmHg 58%
01:00 +8°C° 0 mm 2 m/s 746 mmHg 58%
02:00 +7°C° 0 mm 2 m/s 746 mmHg 58%
03:00 +7°C° 0 mm 2 m/s 745 mmHg 59%
04:00 +6°C° 0 mm 2 m/s 745 mmHg 60%
05:00 +6°C° 0 mm 2 m/s 745 mmHg 61%
06:00 +6°C° 0 mm 2 m/s 745 mmHg 60%
07:00 +6°C° 0 mm 2 m/s 745 mmHg 60%
08:00 +7°C° 0 mm 2 m/s 745 mmHg 59%
09:00 +9°C° 0 mm 2 m/s 744 mmHg 53%
10:00 +11°C° 0 mm 3 m/s 744 mmHg 46%
11:00 +13°C° 0 mm 3 m/s 744 mmHg 39%
12:00 +14°C° 0 mm 4 m/s 744 mmHg 35%
13:00 +15°C° 0 mm 5 m/s 743 mmHg 32%
14:00 +16°C° 0 mm 5 m/s 743 mmHg 28%
15:00 +16°C° 0 mm 5 m/s 743 mmHg 31%
16:00 +15°C° 0 mm 4 m/s 744 mmHg 34%
17:00 +15°C° 0 mm 4 m/s 744 mmHg 37%
18:00 +13°C° 0 mm 3 m/s 744 mmHg 44%
19:00 +12°C° 0 mm 3 m/s 745 mmHg 52%
20:00 +10°C° 0 mm 2 m/s 745 mmHg 59%
21:00 +10°C° 0 mm 2 m/s 746 mmHg 62%
22:00 +9°C° 0 mm 2 m/s 746 mmHg 65%
23:00 +8°C° 0 mm 2 m/s 747 mmHg 69%

6 Março, Sábado

Tempo Temperatura Precipitação Vento Pressão Humidade
00:00 +8°C° 0 mm 2 m/s 747 mmHg 73%
01:00 +7°C° 0 mm 3 m/s 747 mmHg 77%
02:00 +5°C° 0 mm 4 m/s 748 mmHg 81%
03:00 +4°C° 0.2 mm 4 m/s 748 mmHg 81%
04:00 +4°C° 0.2 mm 4 m/s 748 mmHg 82%
05:00 +3°C° 0.2 mm 4 m/s 749 mmHg 83%
06:00 +1°C° 0.5 mm 5 m/s 749 mmHg 86%
07:00 0°C° 0.5 mm 5 m/s 750 mmHg 89%
08:00 -2°C° 0.5 mm 6 m/s 750 mmHg 92%
09:00 -1°C° 1 mm 5 m/s 751 mmHg 92%
10:00 -1°C° 1 mm 5 m/s 751 mmHg 92%
11:00 -1°C° 1 mm 5 m/s 752 mmHg 91%
12:00 0°C° 0.7 mm 5 m/s 752 mmHg 88%
13:00 0°C° 0.7 mm 5 m/s 752 mmHg 85%
14:00 +1°C° 0.7 mm 5 m/s 753 mmHg 83%
15:00 +1°C° 0.1 mm 4 m/s 753 mmHg 76%
16:00 +1°C° 0.1 mm 4 m/s 754 mmHg 70%
17:00 +3°C° 0.1 mm 3 m/s 754 mmHg 64%
18:00 +2°C° 0 mm 3 m/s 755 mmHg 65%
19:00 +2°C° 0 mm 2 m/s 755 mmHg 66%
20:00 +3°C° 0 mm 1 m/s 756 mmHg 68%
21:00 +2°C° 0 mm 1 m/s 756 mmHg 68%
22:00 +1°C° 0 mm 2 m/s 757 mmHg 69%
23:00 -1°C° 0 mm 2 m/s 757 mmHg 70%

7 Março, Domingo

Tempo Temperatura Precipitação Vento Pressão Humidade
00:00 +1°C° 0 mm 1 m/s 757 mmHg 71%
01:00 +1°C° 0 mm 1 m/s 757 mmHg 71%
02:00 0°C° 0 mm 1 m/s 757 mmHg 72%
03:00 0°C° 0 mm 1 m/s 757 mmHg 71%
04:00 0°C° 0 mm 1 m/s 757 mmHg 71%
05:00 0°C° 0 mm 1 m/s 756 mmHg 70%
06:00 0°C° 0 mm 1 m/s 756 mmHg 68%
07:00 +1°C° 0 mm 1 m/s 756 mmHg 66%
08:00 +1°C° 0 mm 1 m/s 756 mmHg 63%
09:00 +2°C° 0 mm 1 m/s 756 mmHg 59%
10:00 +3°C° 0 mm 2 m/s 755 mmHg 54%
11:00 +4°C° 0 mm 2 m/s 755 mmHg 50%
12:00 +4°C° 0 mm 2 m/s 754 mmHg 50%
13:00 +4°C° 0 mm 3 m/s 754 mmHg 50%
14:00 +4°C° 0 mm 3 m/s 753 mmHg 50%
15:00 +4°C° 0 mm 3 m/s 752 mmHg 52%
16:00 +4°C° 0 mm 3 m/s 751 mmHg 53%
17:00 +4°C° 0 mm 3 m/s 751 mmHg 55%
18:00 +3°C° 0 mm 3 m/s 751 mmHg 60%
19:00 +2°C° 0 mm 3 m/s 750 mmHg 65%
20:00 +1°C° 0 mm 3 m/s 750 mmHg 70%
21:00 0°C° 0 mm 3 m/s 750 mmHg 71%
22:00 0°C° 0 mm 3 m/s 750 mmHg 73%
23:00 0°C° 0 mm 3 m/s 750 mmHg 74%

8 Março, Segunda-feira

Tempo Temperatura Precipitação Vento Pressão Humidade
00:00 -1°C° 0 mm 2 m/s 749 mmHg 73%
01:00 -1°C° 0 mm 2 m/s 749 mmHg 72%
02:00 -1°C° 0 mm 2 m/s 748 mmHg 71%
03:00 -1°C° 0 mm 2 m/s 748 mmHg 70%
04:00 -2°C° 0 mm 2 m/s 747 mmHg 69%
05:00 -2°C° 0 mm 2 m/s 747 mmHg 67%
06:00 -1°C° 0 mm 2 m/s 747 mmHg 65%
07:00 -1°C° 0 mm 2 m/s 747 mmHg 62%
08:00 +1°C° 0 mm 2 m/s 747 mmHg 60%
09:00 +3°C° 0 mm 2 m/s 747 mmHg 54%
10:00 +4°C° 0 mm 2 m/s 747 mmHg 48%
11:00 +6°C° 0 mm 2 m/s 747 mmHg 42%
12:00 +6°C° 0 mm 2 m/s 747 mmHg 40%
13:00 +7°C° 0 mm 2 m/s 746 mmHg 38%
14:00 +8°C° 0 mm 2 m/s 746 mmHg 36%
15:00 +8°C° 0 mm 2 m/s 746 mmHg 38%
16:00 +9°C° 0 mm 1 m/s 746 mmHg 39%
17:00 +9°C° 0 mm 1 m/s 746 mmHg 40%
18:00 +8°C° 0 mm 1 m/s 746 mmHg 45%
19:00 +5°C° 0 mm 2 m/s 747 mmHg 49%
20:00 +4°C° 0 mm 2 m/s 748 mmHg 54%
21:00 +2°C° 0 mm 3 m/s 748 mmHg 59%
22:00 0°C° 0 mm 4 m/s 749 mmHg 64%
23:00 0°C° 0 mm 4 m/s 750 mmHg 70%
Mostrar mais

Necessitamos do seu Consentimento

A Meteoprog e os seus Fornecedores de Serviços podem armazenar e aceder a dados pessoais como cookies, identificadores do dispositivo ou outras tecnologias semelhantes existentes no seu dispositivo e processar estes dados para personalizar conteúdos e anúncios, assim como funcionalidades nas redes sociais e análise de tráfego.

  • Armazenar e/ou aceder a informações no seu dispositivo

    Os cookies, identificadores do dispositivo ou outras informações podem ser armazenados ou acedidos no seu dispositivo, para os fins acima indicados.

  • Anúncios e conteúdos personalizados, medição de anúncios e conteúdos, dados sobre o público-alvo e desenvolvimento de produtos

    Os anúncios e os conteúdos podem ser personalizados com base num perfil. Podem ser adicionados dados adicionais para uma maior personalização dos anúncios e dos conteúdos. A eficácia dos anúncios e dos conteúdos pode ser medida. Podem ser obtidas informações sobre o público que visualizou os anúncios e os conteúdos. Estes dados podem ser usados para desenvolver ou melhorar sistemas, softwares ou a experiência do utilizador.

Ao clicar em "Eu concordo”, permitirá o uso de cookies, identificadores do dispositivo e web beacons mencionados ou outras tecnologias semelhantes. As configurações do navegador do seu dispositivo podem ser alteradas.

Para certos fins, podem ser invocados interesses legítimos ao invés de consentimento. Pode ler mais informação sobre este assunto na nossa Política de Privacidade e Cookies.